Temp
54 54 53 53 56 58 57 56 55 57 56 59 61 61 61 61 62 61 60 61 61 61 62 61 61 63 63 64 64 64 63 62 57 61 65 67 66 66 68 68 67 69 68
56 56 56 57 57 56 55 56 56 55 55 55 56 58 61 61 61 61 60 61 61 61 62 62 62 63 63 64 63 63 62 63 60 57 61 62 63 64 65 64 66 67 67
55 55 55 56 54 54 54 54 55 55 55 54 54 53 54 55 56 57 58 59 60 61 61 60 61 61 60 61 61 60 60 62 60 58 58 61 61 62 60 61 61 62 65
55 54 54 54 54 55 55 54 54 54 53 53 53 53 52 52 53 54 54 54 55 56 55 54 55 56 57 57 57 57 58 56 56 55 55 55 56 58 57 56 55 58 56
54 54 54 55 56 56 54 54 54 53 53 52 51 52 52 52 51 49 50 52 52 52 54 54 55 51 48 50 52 53 53 52 51 51 50 51 52 52 48 48 49 50 51
53 53 55 54 55 54 54 53 53 52 52 51 50 50 50 51 48 48 49 50 52 52 51 53 55 51 51 50 48 48 48 49 51 50 49 47 46 45 44 45 45 44 44
52 53 54 53 53 53 54 53 52 52 53 52 51 50 49 50 47 48 47 50 49 49 50 50 50 52 50 50 47 46 45 45 45 46 44 41 41 41 41 42 42 42 42
52 52 53 53 52 53 52 52 52 52 51 51 51 51 50 49 46 47 47 49 48 47 47 47 47 47 46 47 46 43 43 42 42 44 42 40 40 40 40 40 41 40 42
52 53 53 53 51 51 51 51 51 51 50 50 50 49 49 49 45 46 46 47 46 47 47 45 45 45 44 45 44 41 41 40 42 41 40 40 40 41 40 39 35 35 35
54 54 55 54 52 50 51 50 50 50 49 49 48 49 49 46 46 45 45 47 46 46 47 47 43 42 43 43 45 44 41 39 40 40 40 40 41 40 39 37 35 32 33
55 54 53 52 50 50 50 50 49 49 48 48 48 49 49 48 48 45 44 45 46 46 46 45 44 41 41 42 42 41 40 42 42 40 38 37 37 36 35 34 34 33 31
54 52 51 51 51 50 49 49 49 48 47 47 48 48 49 49 46 45 44 43 44 44 44 44 41 40 39 40 40 39 39 40 39 36 34 32 31 31 31 31 32 34 35
54 51 51 51 52 51 50 49 49 49 47 47 47 45 46 47 47 44 44 43 42 42 44 41 40 38 38 38 37 38 40 37 34 33 31 30 30 30 30 30 32 32 31
53 52 52 52 52 52 50 49 49 49 48 46 45 44 46 45 45 45 43 43 42 40 39 38 39 39 37 37 36 37 36 34 32 31 30 30 31 29 28 28 26 26 26
51 50 50 51 51 49 50 50 49 50 49 47 46 46 45 44 45 46 45 43 42 42 40 38 36 36 35 34 34 34 34 33 31 30 29 29 29 29 27 27 25 25 24
49 49 49 49 49 47 46 47 47 45 45 45 44 43 45 46 44 43 43 43 43 43 37 35 34 34 34 34 33 33 32 31 30 29 28 27 26 25 25 25 25 23 22
47 48 50 49 50 50 49 46 43 45 43 42 42 42 42 42 43 42 42 42 42 41 35 34 34 33 33 32 32 31 30 30 27 26 26 25 24 24 23 23 23 23 22
46 44 44 47 48 48 48 45 45 44 43 43 42 42 42 42 41 41 41 41 37 39 36 34 34 34 32 32 31 31 30 28 27 27 25 23 21 23 24 26 24 23 21
45 45 45 43 43 44 42 42 42 42 42 42 42 42 42 42 42 42 42 37 36 36 36 36 36 34 33 32 32 31 31 29 28 25 24 21 21 21 24 22 21 27 26
44 43 42 40 41 40 40 39 39 39 39 39 39 39 40 39 36 37 38 38 37 37 37 36 36 35 34 33 32 31 29 29 26 25 23 23 22 22 23 23 23 23 25
42 42 42 39 39 39 39 38 38 38 37 38 38 38 42 38 36 36 37 37 37 37 36 36 35 35 34 33 32 31 30 29 28 27 24 23 24 21 23 26 26 26 25
40 39 38 37 37 36 37 37 37 36 36 36 37 37 40 38 36 36 36 36 37 38 37 36 35 35 34 33 33 31 30 29 28 27 24 22 23 23 25 25 25 25 25
38 38 37 37 36 36 35 35 34 35 35 35 36 35 35 35 35 36 36 36 36 35 35 34 35 34 34 33 33 32 30 29 29 28 25 23 20 21 24 24 25 24 24
38 37 36 36 36 35 35 34 34 34 34 34 35 35 35 35 35 35 35 35 34 34 34 33 33 33 32 32 32 32 31 30 29 28 25 22 20 23 25 24 24 24 24
37 37 36 36 35 35 35 35 34 34 34 34 33 34 34 34 34 34 34 33 33 32 31 31 31 32 31 31 30 30 30 31 27 26 24 23 21 20 24 24 24 24 24
37 37 37 36 36 35 35 34 34 34 33 33 33 33 33 33 33 32 32 32 31 31 31 31 31 30 30 30 29 29 32 31 28 29 25 24 23 23 24 23 24 24 24
MSLP
1017.13 1016.97 1016.70 1016.44 1015.95 1015.42 1015.20 1014.90 1014.50 1014.12 1013.76 1013.11 1012.59 1012.24 1011.91 1011.64 1011.41 1011.16 1010.94 1010.67 1010.40 1010.17 1010.02 1009.92 1009.69 1009.46 1009.33 1009.10 1009.00 1008.96 1009.01 1009.05 1008.92 1008.79 1008.54 1008.21 1008.11 1007.98 1007.86 1007.75 1007.65 1007.50 1007.23
1016.69 1016.43 1016.13 1015.83 1015.59 1015.31 1015.07 1014.76 1014.50 1014.17 1013.82 1013.49 1013.10 1012.46 1011.90 1011.55 1011.26 1011.00 1010.73 1010.43 1010.18 1009.85 1009.35 1009.25 1009.24 1009.05 1008.96 1008.84 1008.82 1008.88 1008.91 1008.90 1008.88 1008.73 1008.55 1008.39 1008.26 1008.09 1007.91 1007.75 1007.65 1007.35 1007.04
1016.35 1016.18 1015.86 1015.57 1015.61 1015.26 1015.04 1014.83 1014.55 1014.26 1013.94 1013.65 1013.37 1013.08 1012.73 1012.43 1011.97 1011.60 1011.27 1010.76 1010.38 1010.08 1009.84 1009.71 1009.51 1009.36 1009.32 1009.22 1009.20 1009.19 1009.19 1009.07 1008.98 1008.93 1008.70 1008.51 1008.28 1008.21 1008.09 1007.93 1007.79 1007.40 1007.02
1016.05 1015.90 1015.64 1015.49 1015.42 1015.17 1015.00 1014.77 1014.58 1014.34 1014.11 1013.86 1013.59 1013.38 1013.19 1012.93 1012.58 1012.23 1011.87 1011.58 1011.25 1010.96 1010.85 1010.74 1010.47 1010.18 1009.99 1009.89 1009.76 1009.61 1009.50 1009.47 1009.39 1009.28 1009.10 1009.07 1008.89 1008.59 1008.38 1008.26 1007.90 1007.59 1007.35
1015.73 1015.60 1015.42 1015.30 1015.11 1014.96 1014.86 1014.68 1014.50 1014.33 1014.14 1014.03 1013.80 1013.52 1013.29 1012.99 1012.89 1012.78 1012.33 1011.78 1011.43 1011.24 1011.03 1010.88 1010.74 1010.70 1010.68 1010.60 1010.47 1010.20 1010.07 1009.97 1009.88 1009.79 1009.62 1009.44 1009.12 1008.94 1009.20 1009.30 1009.01 1008.47 1007.99
1015.32 1015.24 1015.11 1015.11 1014.96 1014.80 1014.70 1014.59 1014.50 1014.35 1014.15 1014.05 1013.88 1013.71 1013.48 1013.27 1013.25 1012.90 1012.54 1012.02 1011.52 1011.32 1011.04 1010.78 1010.57 1010.64 1010.64 1010.58 1010.52 1010.46 1010.52 1010.41 1010.12 1010.02 1010.02 1010.08 1010.22 1010.36 1010.27 1010.03 1009.54 1008.98 1008.75
1014.99 1014.91 1014.87 1014.91 1014.83 1014.67 1014.57 1014.44 1014.29 1014.10 1013.93 1013.78 1013.69 1013.62 1013.46 1013.34 1013.37 1013.01 1012.69 1012.22 1012.01 1011.81 1011.64 1011.50 1011.34 1011.22 1011.05 1010.92 1011.18 1011.32 1011.33 1011.24 1011.14 1010.84 1010.73 1011.03 1010.96 1011.18 1010.99 1010.53 1010.20 1009.86 1009.50
1014.51 1014.49 1014.46 1014.53 1014.53 1014.48 1014.43 1014.31 1014.16 1014.02 1013.87 1013.71 1013.56 1013.49 1013.39 1013.31 1013.34 1013.11 1012.88 1012.61 1012.52 1012.52 1012.38 1012.22 1012.05 1011.86 1011.82 1011.47 1011.31 1011.49 1011.65 1011.76 1011.69 1011.60 1011.66 1011.75 1011.75 1011.67 1011.40 1011.03 1010.61 1010.32 1009.74
1013.86 1013.87 1013.92 1014.09 1014.20 1014.19 1014.07 1013.96 1013.84 1013.81 1013.72 1013.57 1013.49 1013.37 1013.18 1013.06 1013.20 1013.17 1012.95 1012.71 1012.70 1012.58 1012.62 1012.66 1012.44 1012.23 1012.22 1011.87 1011.67 1011.77 1011.93 1012.09 1012.15 1012.15 1012.10 1012.05 1011.94 1011.76 1011.54 1011.13 1011.06 1010.70 1010.19
1013.06 1013.11 1013.23 1013.46 1013.65 1013.65 1013.59 1013.54 1013.50 1013.45 1013.33 1013.22 1013.08 1013.03 1012.95 1013.01 1012.86 1012.94 1012.83 1012.49 1012.34 1012.37 1012.26 1012.34 1012.59 1012.58 1012.51 1012.29 1011.78 1011.74 1011.83 1012.18 1012.22 1012.18 1012.13 1012.07 1011.97 1012.03 1011.97 1011.88 1011.74 1011.46 1011.11
1012.19 1012.34 1012.61 1012.79 1012.91 1013.03 1013.06 1013.11 1013.17 1013.12 1013.02 1012.89 1012.64 1012.40 1012.27 1012.38 1012.45 1012.61 1012.69 1012.45 1012.03 1011.85 1011.97 1012.18 1012.44 1012.68 1012.48 1012.30 1012.13 1012.08 1012.15 1012.14 1012.02 1012.05 1012.15 1012.25 1012.27 1012.32 1012.34 1012.26 1012.13 1011.92 1011.71
1011.56 1011.79 1011.97 1012.13 1012.30 1012.47 1012.57 1012.48 1012.41 1012.40 1012.30 1012.14 1011.93 1011.81 1011.80 1011.86 1012.10 1012.29 1012.46 1012.45 1012.24 1012.00 1011.78 1011.92 1012.29 1012.65 1012.79 1012.60 1012.35 1012.35 1012.34 1012.10 1012.01 1012.18 1012.20 1012.38 1012.49 1012.65 1012.61 1012.42 1012.24 1012.07 1011.92
1011.05 1011.24 1011.33 1011.38 1011.40 1011.56 1011.70 1011.70 1011.76 1011.78 1011.74 1011.55 1011.39 1011.37 1011.30 1011.27 1011.54 1011.78 1011.91 1012.06 1012.21 1012.04 1011.85 1012.12 1012.41 1012.64 1012.72 1012.78 1012.78 1012.54 1012.22 1012.10 1012.23 1012.23 1012.34 1012.53 1012.73 1012.81 1012.79 1012.62 1012.25 1012.10 1012.04
1010.39 1010.54 1010.69 1010.79 1010.78 1010.83 1010.95 1011.02 1010.91 1010.76 1010.73 1010.79 1010.83 1010.84 1010.73 1010.73 1010.96 1011.19 1011.51 1011.66 1011.86 1012.08 1012.21 1012.36 1012.42 1012.52 1012.44 1012.40 1012.65 1012.58 1012.49 1012.39 1012.42 1012.56 1012.74 1012.70 1012.64 1012.67 1012.81 1012.88 1012.74 1012.34 1012.16
1009.83 1009.98 1010.05 1009.96 1009.91 1009.98 1009.97 1010.01 1010.14 1010.07 1010.06 1010.10 1010.10 1010.20 1010.27 1010.29 1010.33 1010.58 1010.88 1011.10 1011.26 1011.50 1011.85 1012.12 1012.46 1012.46 1012.34 1012.18 1012.23 1012.47 1012.59 1012.55 1012.54 1012.69 1012.87 1012.90 1012.87 1012.82 1012.88 1012.96 1012.93 1012.74 1012.52
1009.44 1009.46 1009.48 1009.53 1009.60 1009.66 1009.65 1009.50 1009.40 1009.47 1009.62 1009.66 1009.74 1009.96 1009.85 1009.93 1010.17 1010.36 1010.63 1010.89 1011.18 1011.43 1011.73 1011.73 1011.85 1011.92 1012.03 1011.90 1011.83 1012.06 1012.42 1012.58 1012.64 1012.82 1013.08 1013.11 1013.05 1013.03 1012.96 1013.03 1013.08 1013.01 1012.83
1009.28 1009.16 1008.99 1008.88 1008.85 1008.77 1008.73 1008.84 1008.81 1008.62 1008.64 1008.88 1009.15 1009.34 1009.51 1009.47 1009.67 1009.96 1010.19 1010.39 1010.51 1010.92 1011.02 1011.01 1011.18 1011.34 1011.48 1011.69 1011.67 1011.75 1012.15 1012.39 1012.75 1012.85 1013.19 1013.30 1013.19 1013.15 1013.09 1013.04 1013.07 1012.97 1012.78
1009.12 1009.07 1009.11 1008.94 1008.65 1008.49 1008.34 1008.29 1008.31 1008.34 1008.34 1008.16 1008.22 1008.39 1008.50 1008.76 1009.11 1009.45 1009.72 1010.00 1010.17 1010.08 1010.23 1010.37 1010.49 1010.68 1010.88 1011.10 1011.40 1011.56 1011.85 1012.29 1012.57 1012.70 1013.04 1013.35 1013.35 1013.24 1013.14 1013.11 1013.07 1013.08 1013.01
1009.03 1008.92 1008.82 1008.77 1008.70 1008.61 1008.62 1008.58 1008.49 1008.36 1008.18 1007.95 1007.85 1007.83 1007.90 1007.96 1008.19 1008.59 1008.94 1008.94 1008.93 1009.02 1009.19 1009.48 1009.68 1009.96 1010.23 1010.43 1010.79 1011.16 1011.42 1011.74 1012.10 1012.46 1012.80 1013.19 1013.33 1013.30 1013.20 1013.25 1013.18 1012.83 1012.75
1008.93 1008.78 1008.77 1008.79 1008.65 1008.45 1008.33 1008.25 1008.19 1008.09 1007.92 1007.75 1007.55 1007.40 1007.35 1007.51 1007.52 1007.54 1007.76 1007.98 1008.11 1008.12 1008.26 1008.42 1008.67 1009.02 1009.51 1009.81 1010.10 1010.54 1011.06 1011.35 1011.76 1012.15 1012.47 1012.74 1012.93 1013.03 1013.04 1013.16 1013.03 1012.87 1012.76
1008.92 1008.80 1008.73 1008.72 1008.55 1008.31 1008.11 1007.91 1007.75 1007.72 1007.55 1007.28 1007.03 1007.05 1007.08 1007.07 1007.04 1007.05 1007.02 1007.05 1007.03 1007.08 1007.27 1007.50 1007.84 1008.16 1008.62 1008.98 1009.33 1009.81 1010.36 1010.70 1010.96 1011.42 1011.87 1012.22 1012.48 1012.73 1012.77 1012.86 1012.82 1012.65 1012.68
1008.65 1008.61 1008.58 1008.42 1008.26 1008.20 1008.09 1007.85 1007.55 1007.45 1007.27 1006.95 1006.64 1006.50 1006.42 1006.43 1006.49 1006.48 1006.43 1006.30 1006.17 1006.25 1006.46 1006.87 1007.18 1007.47 1007.78 1008.09 1008.49 1008.96 1009.55 1010.01 1010.49 1011.04 1011.47 1011.83 1012.10 1012.38 1012.47 1012.59 1012.61 1012.54 1012.53
1008.36 1008.35 1008.23 1008.05 1007.95 1007.92 1007.82 1007.63 1007.39 1007.12 1006.83 1006.62 1006.37 1006.06 1005.95 1005.78 1005.68 1005.57 1005.47 1005.62 1005.59 1005.63 1005.90 1006.16 1006.50 1006.95 1007.32 1007.42 1007.68 1008.13 1008.61 1009.14 1009.71 1010.42 1010.94 1011.44 1011.82 1012.08 1012.20 1012.31 1012.33 1012.41 1012.34
1007.91 1007.92 1007.90 1007.70 1007.58 1007.48 1007.34 1007.10 1006.87 1006.59 1006.32 1005.98 1005.81 1005.62 1005.44 1005.31 1005.21 1005.15 1004.98 1004.99 1005.08 1005.18 1005.35 1005.66 1005.90 1006.17 1006.78 1007.25 1007.41 1007.65 1008.02 1008.58 1009.20 1009.85 1010.47 1010.95 1011.41 1011.71 1011.92 1012.10 1012.18 1012.25 1012.30
1007.30 1007.28 1007.21 1007.11 1007.00 1006.87 1006.75 1006.53 1006.31 1006.04 1005.72 1005.30 1004.94 1004.82 1004.79 1004.78 1004.67 1004.74 1004.69 1004.62 1004.94 1004.97 1005.12 1005.33 1005.52 1005.67 1006.17 1006.80 1007.10 1007.44 1007.90 1008.41 1009.13 1009.70 1010.26 1010.69 1011.12 1011.49 1011.76 1011.93 1012.02 1012.07 1012.14
1006.41 1006.44 1006.41 1006.35 1006.23 1006.14 1006.06 1005.86 1005.63 1005.44 1005.22 1004.77 1004.34 1004.17 1004.08 1004.10 1004.06 1004.19 1004.33 1004.43 1004.53 1004.55 1004.69 1004.98 1005.20 1005.41 1005.80 1006.46 1006.96 1007.37 1007.84 1008.43 1009.01 1009.53 1010.01 1010.45 1010.97 1011.33 1011.63 1011.85 1011.91 1011.97 1011.92
Wind_Speed
5 6 7 7 9 8 7 6 7 9 9 11 10 9 9 8 7 6 7 7 7 7 7 8 9 8 6 5 4 5 5 5 7 6 6 6 6 6 6 6 7 8 8
6 7 8 8 8 8 7 7 7 8 7 8 9 10 8 7 7 7 7 7 7 7 6 6 7 6 7 5 5 5 4 5 5 8 6 6 7 6 7 8 8 8 9
6 6 7 7 8 8 8 8 8 8 7 7 6 7 8 8 9 8 8 8 7 6 5 5 6 5 5 4 4 4 4 5 5 5 6 5 4 5 7 7 8 9 8
6 6 7 7 8 8 8 8 7 7 7 7 7 6 6 7 7 9 9 9 8 7 6 7 8 8 8 8 7 7 6 6 6 5 6 6 6 6 5 7 7 5 7
6 6 7 7 7 7 7 7 7 7 7 6 6 6 6 5 6 9 9 8 7 6 6 5 5 5 5 5 4 5 5 4 4 5 5 5 7 3 4 4 6 7 4
7 7 6 7 7 7 7 6 6 6 6 6 6 6 7 5 12 13 10 7 5 4 4 4 4 3 7 2 5 5 5 4 5 3 3 3 4 4 4 5 4 3 3
7 7 7 7 8 8 7 7 6 6 6 6 6 7 7 6 14 12 11 5 5 5 6 6 6 5 6 2 6 8 8 8 8 5 3 3 3 5 6 6 4 3 2
7 8 7 8 8 8 7 7 6 6 6 5 5 5 5 5 9 12 10 5 4 5 6 7 6 7 9 7 3 3 5 7 8 6 6 5 5 5 5 5 6 6 4
9 9 8 8 8 8 8 7 6 5 6 5 5 6 6 6 6 10 9 4 3 3 3 5 6 6 10 10 1 1 2 3 5 6 5 5 5 9 9 4 5 5 3
9 8 8 7 8 9 7 7 6 6 6 5 7 6 6 7 1 4 6 4 3 4 2 0 6 5 7 8 4 2 0 1 2 3 1 1 5 6 10 7 4 4 3
8 8 8 8 9 8 7 6 6 6 6 7 8 7 8 7 5 4 4 4 4 3 2 1 2 4 4 4 3 2 1 3 3 2 2 2 3 4 3 4 4 3 3
8 9 9 9 7 6 8 7 8 8 8 8 8 6 5 5 8 7 7 6 4 5 3 2 4 2 3 3 4 3 2 3 1 2 1 2 2 2 3 3 4 3 2
9 10 10 10 9 9 9 9 7 7 7 7 5 5 5 4 5 12 10 8 7 5 2 3 6 5 3 3 2 2 2 2 1 1 1 1 1 1 3 3 3 3 2
10 10 9 9 9 9 7 6 7 7 7 6 6 5 6 4 5 5 6 6 7 5 4 4 5 4 2 1 4 2 1 2 1 1 2 1 1 1 2 2 2 2 2
10 8 9 8 9 9 9 8 8 9 8 7 7 5 5 6 6 7 7 5 4 6 5 3 4 5 4 4 3 2 2 1 1 1 1 2 1 1 1 2 2 3 2
9 7 7 7 7 6 6 7 11 13 11 11 11 7 5 10 2 6 9 11 8 6 4 4 5 4 4 4 4 4 3 2 1 1 0 1 1 1 1 1 1 2 2
8 8 6 7 7 7 7 7 7 7 18 17 16 17 17 16 11 13 13 12 13 11 6 5 5 3 3 3 2 2 2 2 2 1 0 0 1 1 2 2 2 2 2
7 9 6 6 6 6 6 5 6 6 7 6 17 17 19 19 17 15 13 11 6 11 8 7 6 5 4 3 3 3 3 3 3 2 2 1 1 1 1 2 2 2 3
5 4 4 3 4 5 4 5 5 6 7 7 5 6 12 17 16 19 18 9 9 8 8 8 7 6 5 5 4 4 4 4 3 3 2 2 2 1 2 1 2 4 4
4 7 5 4 4 4 4 5 5 6 7 6 6 6 3 6 5 8 9 9 9 8 7 8 7 6 6 6 6 5 5 5 4 4 3 3 3 2 2 2 2 2 3
3 3 6 4 5 4 4 5 5 6 7 6 6 4 9 6 6 6 7 8 9 9 8 8 7 7 7 6 7 7 6 6 5 4 3 3 3 2 2 3 3 2 3
3 4 4 4 4 4 5 5 6 7 8 8 8 7 15 7 7 7 7 7 7 7 6 6 6 7 7 8 8 7 7 6 5 5 4 3 3 3 3 3 3 2 2
4 5 5 5 4 7 6 6 7 7 9 9 9 7 6 6 7 7 7 7 6 5 4 6 6 5 6 6 7 7 8 7 6 7 6 5 3 2 4 3 3 3 2
5 5 6 5 5 5 6 7 7 10 9 8 7 7 7 7 7 7 6 4 4 4 5 5 6 7 6 6 5 6 5 6 6 6 7 5 4 5 5 3 3 2 3
6 6 6 6 6 6 7 7 7 8 8 7 7 6 6 6 6 5 4 3 4 4 5 5 5 7 9 10 9 9 9 15 9 8 5 5 4 4 4 2 2 2 2
7 7 6 6 6 6 6 7 8 7 8 7 6 6 6 5 5 4 4 4 4 5 5 5 5 7 9 8 9 12 16 16 12 13 7 5 5 4 5 4 5 3 3
Wind_Direction
305 299 299 293 287 295 302 307 312 314 330 321 322 312 309 310 304 289 276 267 273 266 252 251 267 267 271 274 268 263 261 254 270 283 282 283 288 286 286 277 282 286 284
289 296 296 292 304 304 305 310 320 323 328 329 329 325 326 321 313 303 288 281 287 294 292 247 250 247 253 261 259 271 277 284 284 294 303 305 296 292 295 301 295 287 290
291 297 298 311 304 302 306 312 321 323 328 332 335 341 338 335 335 336 327 318 308 305 308 312 309 316 301 297 298 295 297 295 294 287 286 283 295 330 327 323 314 301 297
271 281 294 298 304 309 311 314 318 325 326 336 338 337 340 337 336 340 327 318 316 318 327 318 322 326 328 333 326 322 321 329 329 323 318 314 306 297 294 296 305 324 333
270 279 287 302 307 311 314 322 323 326 329 333 331 336 341 330 11 340 327 318 314 317 317 315 318 341 325 308 300 307 303 292 293 294 283 281 285 330 8 340 305 319 332
255 265 279 296 302 304 311 320 330 327 332 334 338 338 342 343 358 343 340 316 322 329 315 318 311 332 341 75 95 71 30 321 296 309 300 338 350 350 337 317 307 331 313
253 268 274 280 288 293 299 302 303 310 320 325 333 339 340 352 358 355 355 357 9 3 360 1 351 349 349 19 86 61 52 39 35 346 26 34 5 360 332 318 333 313 290
250 256 260 263 270 278 283 287 292 302 308 315 317 323 322 333 3 356 346 343 9 17 18 8 4 3 10 343 93 71 51 45 35 41 46 46 33 9 350 310 310 305 264
244 249 247 248 258 265 267 270 277 282 287 291 296 297 299 305 32 351 349 335 334 349 16 33 14 19 6 1 12 108 111 87 66 61 60 47 29 22 13 349 4 347 323
240 244 246 240 244 251 257 261 263 260 261 263 267 268 275 276 182 347 339 300 279 286 279 319 63 11 358 354 337 305 208 59 322 297 203 80 35 29 37 33 14 8 341
234 233 232 231 231 239 247 247 250 255 254 254 252 249 246 249 258 192 268 269 248 245 252 250 65 22 19 28 28 32 325 300 299 307 17 25 28 39 17 20 13 11 352
232 231 231 229 227 228 234 235 234 238 245 252 254 254 255 241 213 232 224 240 282 259 231 192 132 116 54 32 76 70 8 295 14 12 16 44 13 17 353 344 346 2 8
236 237 238 233 230 225 231 234 239 239 245 255 252 249 253 200 231 211 221 221 230 251 222 105 131 178 216 179 48 359 324 24 16 331 24 60 33 352 292 338 322 336 253
251 248 247 244 240 233 228 237 242 235 233 236 238 238 243 224 217 210 209 211 220 219 160 190 207 225 234 151 234 238 11 40 23 16 5 1 341 24 11 349 326 335 298
253 248 253 247 239 236 239 230 229 238 229 230 233 228 236 239 227 211 210 216 204 210 189 188 208 222 225 205 195 203 231 235 61 34 351 346 353 351 37 352 329 314 326
255 248 247 247 239 241 254 260 234 246 261 247 248 250 246 242 210 209 231 237 237 211 204 223 229 226 225 224 194 195 192 200 156 90 339 311 328 329 10 321 304 316 313
257 262 261 244 247 249 238 239 257 234 232 235 240 244 244 243 230 231 235 229 222 212 224 222 221 219 207 212 200 167 185 165 108 168 221 286 306 304 343 340 323 322 320
259 254 265 272 274 263 260 253 252 255 261 243 230 235 237 241 240 238 234 233 232 227 225 226 227 212 202 194 193 184 169 154 190 171 177 185 229 272 291 298 322 332 340
274 265 268 257 260 266 271 272 267 269 267 268 274 214 229 240 239 238 234 222 221 222 219 223 218 209 202 192 189 187 183 184 177 161 176 180 191 223 256 283 287 312 323
273 258 263 270 266 257 250 249 254 256 261 259 255 250 246 207 215 223 220 221 224 229 221 215 210 205 200 191 183 180 179 185 170 180 184 169 187 194 224 246 270 324 326
285 293 279 274 267 260 256 256 257 259 261 259 256 240 247 247 232 228 225 221 223 224 222 213 205 200 198 190 182 181 186 186 181 175 164 165 180 186 212 241 263 291 310
255 258 257 262 276 276 269 272 274 270 266 262 262 251 247 245 240 235 237 231 227 228 215 206 206 201 195 191 185 182 182 182 170 171 171 162 169 182 215 225 247 271 289
247 260 262 262 264 278 278 270 266 266 270 271 268 257 240 237 234 231 228 229 225 215 195 190 202 203 201 186 180 181 177 179 177 170 172 168 167 186 205 215 229 258 280
242 251 258 262 265 261 264 267 266 262 262 262 264 261 250 244 239 241 234 224 207 204 193 193 196 190 180 181 174 169 158 150 153 165 157 154 156 193 198 199 229 240 274
230 241 245 252 256 263 272 272 271 268 264 259 255 251 251 247 242 240 232 203 211 196 197 191 188 186 181 176 168 160 158 156 149 148 148 147 156 167 185 196 228 250 245
229 233 240 247 253 258 264 273 275 270 268 264 256 249 244 238 228 223 217 210 205 202 189 183 177 174 167 164 155 156 166 165 159 158 150 151 158 169 189 206 223 241 246